Lid_Strength_Index
1 1 1 1 2 1 1 1 0 0 0 0 0 0 0 0 1 1 1 1 1 1
1 1 1 1 1 1 2 1 0 0 0 0 0 0 0 1 1 1 1 1 1 1
1 1 1 1 1 1 1 1 0 0 0 0 0 0 0 1 1 1 1 1 1 1
1 1 1 1 1 1 1 0 1 0 0 0 0 0 1 1 1 1 1 1 1 1
1 1 1 2 1 1 1 1 1 0 1 1 1 0 1 1 1 1 1 1 1 1
1 1 1 1 2 1 1 1 1 1 1 1 1 1 1 1 1 1 1 1 1 1
2 1 1 1 1 1 1 1 1 1 1 1 1 1 1 1 1 1 1 1 1 1
1 1 1 1 1 1 1 1 1 1 1 1 1 0 1 1 1 1 1 1 1 1
2 1 1 1 1 2 1 1 1 1 1 1 1 3 3 1 1 1 1 1 1 1
2 2 2 1 1 1 2 1 1 1 1 1 1 5 5 4 1 1 1 1 1 1
2 2 2 2 2 2 1 2 1 1 1 1 1 5 6 5 2 1 1 1 1 1
2 2 2 2 2 2 2 2 1 1 1 1 1 6 7 7 4 2 1 1 1 1
2 2 2 2 2 1 1 2 1 1 1 2 1 6 8 7 2 3 2 1 1 4
2 2 2 2 1 1 2 2 2 2 1 1 1 1 8 10 2 1 2 2 1 1